Regional Weather Roundup
Issued by NWS

Home | Current Version | Previous Version | Graphics & Text | Print | Product List | Glossary On
Versions: 1 2 3 4 5 6 7 8 9 10 11 12 13 14 15 16 17 18 19 20 21 22 23 24 25 26 27
000
ASUS43 KDMX 241507
RWRIA

WEATHER ROUNDUP FOR IOWA
NATIONAL WEATHER SERVICE DES MOINES IA
1000 AM CDT FRI OCT 24 2014

NOTE: "FAIR" INDICATES FEW OR NO CLOUDS BELOW 12,000 FEET WITH NO
SIGNIFICANT WEATHER AND/OR OBSTRUCTIONS TO VISIBILITY.

* - THESE STATIONS ARE NOT NWS STATIONS...THUS NOT UNDER NWS
QUALITY CONTROL.  THEY ALSO DO NOT REPORT WEATHER SUCH
AS PRECIPITATION OR FOG.

IAZ001>003-012>014-020>022-031>034-043>046-241600-
   NORTHWEST IOWA

CITY           SKY/WX    TMP DP  RH WIND       PRES   REMARKS
CARROLL *      CLOUDY    63  59  88 SW13G18   29.92R FOG
CHEROKEE *     CLOUDY    59  59 100 S7        29.89S FOG
DENISON *      CLOUDY    61  61 100 SW9G17    29.91R FOG
LE MARS *      SUNNY     57  55  94 SW6       29.91R
ORANGE CITY *  SUNNY     57  54  88 SW7       29.90R FOG
SHELDON *      SUNNY     55  55 100 SW7       29.89R FOG
SIOUX CITY     CLOUDY    57  55  93 CALM      29.91R
SPENCER        CLOUDY    59  55  87 SW14      29.89R
STORM LAKE *   MOSUNNY   59  57  94 SW14G22   29.91R FOG
$$

IAZ055>058-069>071-079>083-090>094-241600-
   SOUTHWEST IOWA

CITY           SKY/WX    TMP DP  RH WIND       PRES   REMARKS
ATLANTIC *     CLOUDY    61  61 100 S13G22    29.94S FOG
AUDUBON *      CLOUDY    61  55  82 S13G20    29.95R FOG
CLARINDA *     CLOUDY    61  61 100 S10       30.00S FOG
COUNCIL BLFS * MOSUNNY   61  61 100 SW13      29.93R FOG
CRESTON *      FOG       59  59 100 S15       29.98F VSB 1/4
HARLAN  *      CLOUDY    61  61 100 SW12G21   29.97R FOG
LAMONI         FOG       57  57 100 S10       30.02R VSB 1/4
RED OAK *        N/A    N/A N/A N/A S15       29.95F
SHENANDOAH *   SUNNY     63  61  94 S12       29.97F
$$

IAZ047>049-059>061-072>074-084-241600-
   CENTRAL IOWA

CITY           SKY/WX    TMP DP  RH WIND       PRES   REMARKS
AMES           FOG       58  57  97 S13       29.96S VSB 1
ANKENY *       FOG       59  59 100 S10G16    29.96F VSB 1
CHARITON *     FOG       57  57 100 S14       30.00F VSB 3/4
DES MOINES     CLOUDY    61  59  93 S13       29.97S FOG
GRINNELL*      DRZL/FOG  57  55  94 S9        30.01S VSB 1/4
KNOXVILLE *    FOG       59  59 100 S14       29.99S VSB 3/4
MARSHALLTOWN   FOG       57  57 100 S13       29.97S VSB 1/4
PELLA *        FOG       59  59 100 S12       30.01F VSB 1/2
PERRY *        CLOUDY    61  61 100 S14       29.94S FOG
$$

IAZ004>006-015-016-023>025-035-036-241600-
   NORTH CENTRAL IOWA

CITY           SKY/WX    TMP DP  RH WIND       PRES   REMARKS
ALGONA *       FOG       57  57 100 S13       29.90S VSB 1/4
CLARION *      CLOUDY    55  55 100 S14       29.92S
ESTHERVILLE    CLOUDY    56  53  90 SW10      29.88R FOG
FORT DODGE *   CLOUDY    59  55  88 S12G17    29.93R
MASON CITY     FOG       50  50 100 S13       29.94R VSB 1/4
FOREST CITY *  FOG       54  54 100 S10       29.92R VSB 3/4
IOWA FALLS *   RAIN      55  54  94 S12       29.95F VSB 1/4
$$

IAZ007>011-017>019-026>030-037>042-050>054-066-241600-
   NORTHEAST IOWA

CITY           SKY/WX    TMP DP  RH WIND       PRES   REMARKS
CEDAR RAPIDS   FOG       49  49 100 S8        30.03S VSB 1/16
CHARLES CITY * FOG       52  52 100 S10       29.96F VSB 1/4
CLINTON *      CLOUDY    54  52  94 S8        30.08S
DECORAH *      CLOUDY    54  54 100 SE8G14    29.97F FOG
DUBUQUE        FOG       52  52 100 S10       30.04R VSB 1/4
MONTICELLO *   FOG       50  50 100 S8        30.05R VSB 0
OELWEIN *      FOG       52  52 100 SE13      30.00S VSB 0
WATERLOO       FOG       49  49 100 S12       29.98S VSB 1/4
$$

IAZ064-065-067-068-078-241600-
   EAST CENTRAL IOWA

CITY           SKY/WX    TMP DP  RH WIND       PRES   REMARKS
DAVENPORT      FOG       54  52  93 S9        30.06F VSB 1/4
IOWA CITY      FOG       50  50 100 S6        30.06F VSB 1/4
MT. PLEASANT * FOG       54  54 100 S5        30.07S VSB<1/4
MUSCATINE *    FOG       52  52 100 S9        30.06F VSB 0
QUAD CITIES    FOG       54  52  93 SW7       30.06F VSB 3/4
$$

IAZ062-063-075>077-085>089-095>099-241600-
   SOUTHEAST IOWA

CITY           SKY/WX    TMP DP  RH WIND       PRES   REMARKS
BURLINGTON     FOG       53  53 100 S7        30.08S VSB<1/4
FAIRFIELD *    CLOUDY    57  55  94 S10       30.04F
FORT MADISON * FOG       55  55 100 SE6       30.09R VSB 0
KEOKUK *       FOG       55  55 100 S5        30.08R VSB 0
OSKALOOSA *    LGT RAIN  57  55  94 S10       30.03S VSB 1/2
CENTERVILLE *  FOG       55  55 100 SE8       30.05F VSB 3/4
OTTUMWA        CLOUDY    57  56  96 S8        30.03S FOG
WASHINGTON *   FOG       54  54 100 S9        30.05S VSB 0
$$

ABBREVIATIONS USED IN REMARKS
   TC - TEMPERATURES IN CELSIUS
  WCI - WIND CHILL INDEX
   HX - HEAT INDEX
  VSB - VISIBILITY
$$




USA.gov is the U.S. government's official web portal to all federal, state and local government web resources and services.